This is the latest recevied weather packets stored in our database for station/object N0FDH. If no packets are shown the sender has not sent any weather packets the latest 10 day(s).
| Time | Temp. | Humidity | Pressure | Rain* | Wind** | Luminosity | Snow |
|---|---|---|---|---|---|---|---|
| 1777897428 | 15° C | 45% | 994.3 hPa | 0 mm | - | 49 W/m² | - |
| 1777897123 | 15° C | 45% | 994 hPa | 0 mm | - | 43 W/m² | - |
| 1777896820 | 15° C | 45% | 994.2 hPa | 0 mm | - | 38 W/m² | - |
| 1777896517 | 15° C | 44% | 994 hPa | 0 mm | - | 39 W/m² | - |
| 1777896214 | 14.44° C | 45% | 994.2 hPa | 0 mm | - | 34 W/m² | - |
| 1777895912 | 14.44° C | 44% | 994 hPa | 0 mm | - | 31 W/m² | - |
| 1777895610 | 13.89° C | 47% | 993.8 hPa | 0 mm | - | 29 W/m² | - |
| 1777895307 | 13.89° C | 45% | 993.8 hPa | 0 mm | - | 26 W/m² | - |
| 1777895005 | 13.89° C | 45% | 993.8 hPa | 0 mm | - | 22 W/m² | - |
| 1777894702 | 13.89° C | 45% | 993.9 hPa | 0 mm | - | 20 W/m² | - |
| 1777894398 | 13.89° C | 44% | 993.8 hPa | 0 mm | - | 17 W/m² | - |
| 1777894096 | 13.89° C | 45% | 993.8 hPa | 0 mm | - | 13 W/m² | - |
| 1777893793 | 13.89° C | 45% | 993.8 hPa | 0 mm | - | 11 W/m² | - |
| 1777893489 | 13.89° C | 45% | 993.9 hPa | 0 mm | - | 8 W/m² | - |
| 1777893186 | 13.33° C | 44% | 993.8 hPa | 0 mm | - | 6 W/m² | - |
| 1777892882 | 13.33° C | 44% | 993.9 hPa | 0 mm | - | 5 W/m² | - |
| 1777892579 | 13.33° C | 44% | 993.9 hPa | 0 mm | - | 3 W/m² | - |
| 1777892274 | 13.33° C | 44% | 993.9 hPa | 0 mm | - | 2 W/m² | - |
| 1777891971 | 13.33° C | 44% | 993.8 hPa | 0 mm | - | 1 W/m² | - |
| 1777891669 | 13.33° C | 44% | 993.9 hPa | 0 mm | - | 1 W/m² | - |
| 1777891364 | 13.89° C | 43% | 994 hPa | 0 mm | - | 0 W/m² | - |
| 1777891061 | 13.89° C | 43% | 994.5 hPa | 0 mm | - | 0 W/m² | - |
| 1777890761 | 13.33° C | 43% | 994.3 hPa | 0 mm | - | 0 W/m² | - |
| 1777890457 | 13.33° C | 43% | 994.2 hPa | 0 mm | - | 0 W/m² | - |
| 1777890153 | 13.33° C | 43% | 994.3 hPa | 0 mm | - | 0 W/m² | - |
* Rain latest hour (hover to see other rain measurements)
** Current wind speed in m/s (hover to see current wind gust speed)